This demonstration page uses our WeatherBlox Daily Observations layout. Learn more.

Left ArrowRight Arrow

41.55636, -103.73856

Hourly Observations for October 11, 2018

Temp ( °F °C ) Dew Point ( °F °C ) Humidity (%) Winds ( mph kmh ) Pressure ( in mb ) Visibility ( mi km ) Precip ( " mm )
12:58 am 00:58 Mostly Cloudy 29 -1.6 29 -1.9 98 98 SSW 5 7 30.23 1024 10 16 N/A
1:58 am 01:58 Cloudy 30 -1.2 29 -1.5 98 98 SSW 5 7 30.22 1023 10 16 N/A
2:58 am 02:58 Cloudy 30 -0.9 29 -1.4 96 96 SW 7 11 30.22 1023 10 16 N/A
3:58 am 03:58 Cloudy 30 -0.9 29 -1.4 96 96 SW 8 13 30.19 1023 10 16 N/A
4:58 am 04:58 Cloudy 31 -0.8 30 -1.3 96 96 SW 7 11 30.21 1023 10 16 N/A
5:58 am 05:58 Mostly Cloudy 30 -1.1 29 -1.7 96 96 SW 8 13 30.20 1023 10 16 0.00 0.00
6:58 am 06:58 Cloudy 30 -1.1 29 -1.7 96 96 SSW 7 11 30.20 1023 10 16 N/A
7:58 am 07:58 Mostly Cloudy 31 -0.5 30 -1.2 95 95 SW 7 11 30.19 1022 10 16 N/A
8:56 am 08:56 Mostly Cloudy 34 1 31 -0.4 90 90 S 10 17 30.19 1022 10 16 N/A
9:56 am 09:56 Cloudy 34 1.3 32 -0.2 90 90 S 9 15 30.19 1022 10 16 N/A
10:56 am 10:56 Cloudy 37 2.6 31 -0.4 81 81 S 9 15 30.15 1021 10 16 N/A
11:56 am 11:56 Cloudy 38 3.4 32 -0.2 78 78 S 13 20 30.14 1021 10 16 N/A
12:56 pm 12:56 Cloudy 38 3.1 33 0.8 85 85 S 15 24 30.12 1020 10 16 N/A
1:58 pm 13:58 Cloudy 37 2.5 34 1.3 92 92 S 10 17 30.09 1019 9 14 N/A
2:58 pm 14:58 Cloudy 37 2.9 35 1.4 90 90 S 8 13 30.07 1018 10 16 N/A
3:58 pm 15:58 Cloudy 39 4 35 1.4 83 83 S 10 17 30.03 1017 10 16 N/A
4:58 pm 16:58 Cloudy 40 4.4 35 1.4 81 81 S 7 11 30.03 1017 10 16 N/A
5:58 pm 17:58 Mostly Cloudy 40 4.5 35 1.5 81 81 S 6 9 30.03 1017 10 16 N/A
6:58 pm 18:58 Mostly Cloudy 39 3.7 35 1.6 86 86 SSE 9 15 30.05 1018 10 16 N/A
7:58 pm 19:58 Cloudy 38 3.3 35 1.8 90 90 SSE 8 13 30.06 1018 10 16 N/A
8:58 pm 20:58 Mostly Cloudy 37 2.8 35 1.7 93 93 S 10 17 30.03 1017 10 16 N/A
9:58 pm 21:58 Mostly Cloudy 37 2.6 35 1.8 95 95 SSW 8 13 30.06 1018 10 16 N/A
10:58 pm 22:58 Mostly Cloudy 37 2.9 36 2.1 95 95 SW 10 17 30.03 1017 10 16 N/A
11:58 pm 23:58 Cloudy 38 3.4 36 2.4 93 93 W 8 13 30.03 1017 10 16 N/A

Powered by AerisWeather